World > North America > United States > Illinois > South Fillmore

Hourly South Fillmore, IL Regional Weather

Feedback E-mail the Weather

Quick WX

South Fillmore, IL Weather Maps

°F °C°F °C
South Fillmore Weather Map
UTC Time: 8/15/2022, 20:09
Your Time:

South Fillmore, IL Regional Weather

Expires:202208152100;;096904
ASUS43 KLOT 152006
RWRIL 

ILLINOIS REGIONAL WEATHER ROUNDUP
NATIONAL WEATHER SERVICE CHICAGO/ROMEOVILLE IL
300 PM CDT MON AUG 15 2022

NOTE: "FAIR" INDICATES FEW OR NO CLOUDS BELOW 12,000 FEET WITH NO
SIGNIFICANT WEATHER AND/OR OBSTRUCTIONS TO VISIBILITY.

* THESE STATIONS ARE NOT UNDER NWS QUALITY CONTROL. THEY ALSO MAY NOT
  REPORT WEATHER SUCH AS PRECIPITATION OR FOG.


ILZ028>032-037-038-041>044-048-051>054-059>061-152100-
CENTRAL ILLINOIS
  
CITY           SKY/WX    TMP DP  RH WIND       PRES   REMARKS
PONTIAC        PTSUNNY   78  67  70 NE9       30.05S                  
BLOOMINGTON    PTSUNNY   77  62  59 N9        30.05S                  
DECATUR        CLOUDY    76  67  73 NE8       30.03F                  
PEORIA         PTSUNNY   80  63  55 VRB3      30.04F HX  81           
LACON*         PTSUNNY   76  67  73 CALM      30.04F                  
LINCOLN*       PTSUNNY   78  66  67 N5        30.04S HX  80           
SPRINGFIELD    MOSUNNY   78  64  61 N10       30.03F HX  80           
TAYLORVILLE    PTSUNNY   75  66  72 N9        30.03S                  
$$


SKY/WX - Weather  TMP - Temperature  DP - Dew Point  RH - Humidity
WIND - Wind Direction/Speed PRES - Barometric Pressure VSB - Visibility
WCI - Wind Chill Index E13G22 Wind - East Wind 13 mph/Gusts of 22 mph

Trending Headlines

South Fillmore Radar Loop



South Fillmore Quick Facts


National Two Day Weather Forecast


E-mail the South Fillmore Weather Forecast

Voice your opinion or tell us about page issues...